AirNav   Air Wisconsin Airman Trainee
 
 889 users online  

8B5 Tanner-Hiller Airport
Barre/Barre Plains, Massachusetts, USA

GOING TO BARRE/BARRE PLAINS?


FAA INFORMATION EFFECTIVE 28 MARCH 2019

Location

FAA Identifier: 8B5
Lat/Long: 42-21-23.0000N / 072-07-48.3000W
42-21.383333N / 072-07.805000W
42.3563889 / -72.1300833
(estimated)
Elevation: 589 ft. / 180 m (estimated)
Variation: 15W (1985)
From city: 4 miles SW of central business district of the associated city
Time zone: UTC -4 (UTC -5 during Standard Time)
Zip code: 01531

Airport Operations

Airport use: Open to the public
Activation date: 11/1946
Control tower: no
ARTCC: BOSTON CENTER
FSS: BRIDGEPORT FLIGHT SERVICE STATION
NOTAMs facility: BDR (NOTAM-D service available)
Attendance: UNATNDD
Wind indicator: yes
Segmented circle: no

Airport Communications

CTAF/UNICOM: 123.0
WX ASOS at ORH (12 nm SE): PHONE 508-795-7546
WX ASOS at ORE (15 nm NW): 135.675 (978-544-6774)

Nearby radio navigation aids

VOR radial/distance  VOR name  Freq  Var
GDMr210/11.8GARDNER VOR/DME110.6014W
PUTr346/27.2PUTNAM VOR/DME117.4014W
EENr179/27.2KEENE VORTAC109.4014W
BAFr080/28.5BARNES VORTAC113.0014W
CTRr097/36.6CHESTER VOR/DME115.1013W

 
NDB name  Hdg/Dist  Freq  Var  ID
FITCHBURG250/20.236515WFIT ..-. .. -

Airport Services

Parking: hangars and tiedowns
Airframe service: MINOR
Powerplant service: MINOR
Bottled oxygen: NONE
Bulk oxygen: NONE

Runway Information

Runway 6/24

Dimensions: 3027 x 40 ft. / 923 x 12 m
Surface: asphalt, in fair condition
Weight bearing capacity: 
Single wheel: 9.0
RUNWAY 6  RUNWAY 24
Latitude: 42-21.210210N42-21.556043N
Longitude: 072-08.047612W072-07.563877W
Elevation: 581.6 ft.589.0 ft.
Gradient: 0.1%0.1%
Traffic pattern: leftleft
Displaced threshold: 150 ft.200 ft.
Markings: numbers only, in fair conditionnumbers only, in fair condition
Runway end identifier lights: nono
Touchdown point: yes, no lightsyes, no lights
Obstructions: 25 ft. trees, 400 ft. from runway, 100 ft. right of centerline, 8:1 slope to clear
72 FT TREES 57 FT FM THLD 65 FT L.
33 ft. trees, 400 ft. from runway, 39 ft. left and right of centerline, 6:1 slope to clear
RY 24 30:1 AT DSPLCD THLD.

Airport Ownership and Management from official FAA records

Ownership: Privately-owned
Owner: G&C GROUP USA
525 MAIN ST
ACTON, MA 01720
Phone (781) 296-1120
Manager: DOUG HERLIHY
295 MCEVOY ROAD
NEW BRAINTREE, MA 01531
Phone (609) 923-3228

Airport Operational Statistics

Aircraft based on the field: 25
Single engine airplanes: 4
Gliders airplanes: 15
Ultralights: 6
    
Aircraft operations: avg 47/month *
88% local general aviation
9% transient general aviation
3% military
* for 12-month period ending 27 April 2016

Additional Remarks

RWY 24 HAS GRVL OVRN, RWY 06 HAS TURF OVRN.
GLIDERS OPR FM ARPT ON INTMT BASIS. GLIDERS AND POWERED ACFT: FOLLOW LEFT TRAFFIC PATTERN ON BOTH RWYS.
WILDLIFE ON & INVOF ARPT.
FUEL NOT AVBL.
AP CLSD EXC PPR - REF NOTAMS
FOR CD CTC YANKEE APCH AT 860-386-3597

Instrument Procedures

There are no published instrument procedures at 8B5.

Some nearby airports with instrument procedures:

KORH - Worcester Regional Airport (12 nm SE)
KGDM - Gardner Municipal Airport (13 nm NE)
KORE - Orange Municipal Airport (15 nm NW)
3B0 - Southbridge Municipal Airport (16 nm S)
KFIT - Fitchburg Municipal Airport (20 nm NE)
 
Loc | Ops | Rwys | IFR | FBO | Links
Com | Nav | Svcs | Stats | Notes
Area around 8B5 (Tanner-Hiller Airport)
 
Road maps at: MapQuest Bing Google
 
Aerial photo
WARNING: Photo may not be current or correct
Aerial photo of 8B5 (Tanner-Hiller Airport)
Photo by Bruce Vinal, Aerial Perspectives
Photo taken 18-Dec-2010
looking southwest.

Do you have a better or more recent aerial photo of Tanner-Hiller Airport that you would like to share? If so, please send us your photo.

 
Sectional chart

 
Airport distance calculator
Flying to Tanner-Hiller Airport? Find the distance to fly.

From to 8B5

Sunrise and sunset
Times for 20-Apr-2019
 Local
(UTC-4)
 Zulu
(UTC)
Morning civil twilight05:3109:31
Sunrise06:0110:01
Sunset19:3423:34
Evening civil twilight20:0400:04

Current date and time
Zulu (UTC)  20-Apr-2019 21:15:27
Local (UTC-4)  20-Apr-2019 17:15:27
 
METAR
KORH 
13nm SE 
202054Z 17017G31KT 10SM OVC012 18/16 A2987 RMK AO2 PK WND 20031/2048 SLP114 60000 T01830161 52004
KORE 
14nm NW 
202052Z AUTO 17010KT 10SM BKN028 OVC033 21/16 A2984 RMK AO2 SLP102 60000 T02110156 53001 TSNO
KCEF 
20nm SW 
202059Z 17016G27KT 10SM -RA FEW011 OVC020 21/16 A2981 RMK AO2A SLPNO
KFIT 
20nm NE 
202052Z AUTO 19012G20KT 10SM BKN029 OVC034 21/15 A2987 RMK AO2 SLP112 60000 T02110150 53002
TAF
KORH 
13nm SE 
201738Z 2018/2118 18015G27KT P6SM BKN012 OVC020 FM202100 18014G25KT P6SM -SHRA OVC008 WS020/19040KT FM210200 19012G20KT P6SM VCSH OVC008 WS020/19040KT FM210400 19009KT P6SM VCSH OVC008 FM211100 18005KT P6SM VCSH OVC060
KCEF 
20nm SW 
201950Z 2019/2124 18012G18KT 9999 OVC022 510002 530206 QNH2979INS TEMPO 2019/2104 18015G25KT 9000 -SHRA BKN015 OVC035 520004 BECMG 2103/2104 18010KT 9999 SCT007 BKN050 BKN130 QNH2992INS TEMPO 2104/2109 8000 -SHRA BR BKN007 OVC013 BECMG 2108/2109 18009KT 9999 SCT013 BKN050 BKN230 QNH2993INS BECMG 2114/2115 16010G18KT 9999 FEW013 BKN070 BKN200 QNH3004INS BECMG 2122/2123 VRB06KT 9999 FEW035 SCT250 QNH3007INS TX21/2019Z TN12/2107Z
NOTAMs
Click for the latest NOTAMs
NOTAMs are issued by the DoD/FAA and will open in a separate window not controlled by AirNav.

 

 
 

Would you like to see your business listed on this page?

 If your business provides an interesting product or service to pilots, flight crews, aircraft, or users of the Tanner-Hiller Airport, you should consider listing it here.  To start the listing process, click on the button below
 
Add a business
 

Other Pages about Tanner-Hiller Airport

www.tannerhillerairport.com
 
Update a link
 
Copyright © AirNav, LLC. All rights reserved. Privacy Policy  Contact